Location: *
(37.5724°S, 58.0067°E)
Time: 10:02:09
(UTC+00:00)

CZ-3A R/B - Pass Details

Date: 17 January 2021
Orbit: 1317 x 30229 km, 55.5° (Epoch: 26 February)

Event Time Altitude Azimuth Distance (km) Brightness Sun altitude
Rises 15:59:32 0° 21° (NNE) 33,275 10.3 -5.9°
Reaches altitude 10° 17:03:00 10° 23° (NNE) 26,370 9.7 -15.9°
Enters shadow 17:43:21 19° 28° (NNE) 19,662 9.0 -21.4°
Exits shadow 18:09:35 26° 38° (NE) 14,069 8.2 -24.4°
Maximum altitude 18:28:15 30° 59° (ENE) 9,606 7.5 -26.3°
Drops below altitude 10° 18:47:30 10° 111° (ESE) 6,486 7.2 -28.0°
Sets 18:51:09 0° 122° (ESE) 6,603 7.4 -28.3°
